Regional Weather Roundup
Issued by NWS Green Bay, WI

Home | Current Version | Previous Version | Text Only | Print | Product List | Glossary On
Versions: 1 2 3 4 5 6 7 8 9 10 11 12 13 14 15 16 17 18 19 20 21 22 23 24 25 26 27 28 29 30 31 32 33 34 35 36 37 38 39 40 41 42 43 44 45 46 47 48 49 50
000
ASUS43 KGRB 271510
RWRGRB

NORTH-CENTRAL AND NORTHEAST WISCONSIN REGIONAL WEATHER ROUNDUP
NATIONAL WEATHER SERVICE GREEN BAY WI
900 AM CST SAT DEC 27 2014

WIZ005-009-010>012-018-019-271600-
NORTH CENTRAL WISCONSIN

CITY           SKY/WX    TMP DP  RH WIND       PRES   REMARKS
IRONWOOD       CLOUDY    28  28 100 N9        29.90F VSB 1/2
MANITOWISH WTR LGT SNOW  27  27 100 N7        29.87S VSB 3/4
ARBOR VITAE    LGT SNOW  30  28  93 N9        29.85S
EAGLE RIVER    LGT SNOW  28  28  99 N5        29.83R
LAND O LAKES   LGT SNOW  29  27  95 N8        29.85S
RHINELANDER    SNOW      28  27  96 N8        29.82F VSB 1/2
PHILLIPS       LGT SNOW  28  26  95 N8        29.87S VSB 3/4
ANTIGO         SNOW      30  30 100 NE5       29.80F VSB 1/2
TOMAHAWK       LGT SNOW  29  27  94 CALM      29.84S
MERRILL        LGT SNOW  30  30 100 N5        29.81S VSB 1
$$

WIZ013-073-271600-
NORTHEAST WISCONSIN

CITY           SKY/WX    TMP DP  RH WIND       PRES   REMARKS
IRON MOUNTAIN  SNOW      31  29  92 N9        29.81F VSB 1/4
MARINETTE      CLOUDY    34  32  93 N9        29.81R
OCONTO         CLOUDY    34  34 100 W5        29.80F
$$

WIZ017-030-035>037-045-271600-
CENTRAL WISCONSIN

CITY           SKY/WX    TMP DP  RH WIND       PRES   REMARKS
MEDFORD        LGT SNOW  29  27  94 N9        29.83R VSB 1
WAUSAU         LGT SNOW  32  31  96 CALM      29.79F VSB 1
MOSINEE        LGT SNOW  32  32 100 N3        29.82F FOG
MARSHFIELD     LGT SNOW  32  30  92 NW8       29.82R FOG
WISC RAPIDS    LGT RAIN  33  31  92 W3        29.83R FOG
STEVENS POINT  MIX PCPN  31  31 100 CALM      29.81S
WAUPACA        CLOUDY    35  34  96 CALM      29.82S FOG
SHAWANO        LGT RAIN  34  33  96 CALM      29.83R
CLINTONVILLE   RAIN      32  32 100 N5        29.81F
$$

WIZ038-039-048-051-271600-
FOX VALLEY

CITY           SKY/WX    TMP DP  RH WIND       PRES   REMARKS
NWS GREEN BAY  RAIN      35  34  96 W6        29.80F FOG
APPLETON       LGT RAIN  36  36 100 W7        29.82  VSB 3/4
OSHKOSH        LGT RAIN  44  41  89 SW12G21   29.79F FOG
FOND DU LAC    CLOUDY    46  42  86 SW9G20    29.80F
$$

WIZ022-050-052-271600-
EAST CENTRAL WISCONSIN

CITY           SKY/WX    TMP DP  RH WIND       PRES   REMARKS
STURGEON BAY   CLOUDY    39  37  93 S7        29.79F
MANITOWOC      LGT RAIN  41  41 100 S10       29.80F VSB 1
SHEBOYGAN      CLOUDY    43  42  97 S9        29.81F FOG
$$

LMZ563-521-522-541>543-271600-
LAKESHORE

STATION/POSITION TIME  TEMP    WIND        PRES    VSBY  WAVE
                       AIR SEA DIR/SP/G                  HT/PER
                 (UTC) (F)     (DEG/KT/KT) (MB)    (MI)  (FT/S)
SHEBOYGAN LKSHOR 1500   41 39  180/ 18/ 19 1010.2F
KEWAUNEE LKSHORE 1500   38     190/ 11/ 12 1007.9F
ALGOMA MARINA    1400          220/ 12/ 13   N/A
NORTHPORT PIER   1500   35      60/ 13/ 17 1009.5F
SISTER BAY LKSHO 1400          120/  8/ 13   N/A
CHAMBERS ISLAND  1500   34      30/ 12/ 18 1009.1F
MENOMINEE LKSHOR 1500   34      20/ 14/ 16 1010.2R
$$


USA.gov is the U.S. government's official web portal to all federal, state and local government web resources and services.